Regional Weather Roundup
Issued by NWS Grand Forks, ND

Home | Current Version | Previous Version | Text Only | Print | Product List | Glossary Off
Versions: 1 2 3 4 5 6 7 8 9 10 11 12 13 14 15 16 17 18 19 20 21 22 23 24 25 26 27 28 29 30 31 32 33 34 35 36 37 38 39 40 41 42 43 44 45 46 47 48 49 50

000
ASUS43 KFGF 051610
RWRFGF
PRAIRIE TO PINES  WEATHER ROUNDUP
NATIONAL WEATHER SERVICE EASTERN NORTH DAKOTA/GRAND FORKS ND
1000 AM CST THU MAR 05 2015

 **SATELLITE DATA USED TO AUGMENT SKY COVER AT AUTOMATED STATIONS**
 *****  WEATHER ACROSS EASTERN NORTH DAKOTA  *****

CITY           SKY/WX    TMP DP  RH WIND       PRES   REMARKS
GRAND FORKS    SUNNY      4  -5  66 S14       30.30F WCI -14
GRAND FRKS AFB SUNNY      7  -7  51 S14       30.28F WCI  -9
GRAND FRKS NWS   N/A      5 N/A N/A S13         N/A  WCI -12
DEVILS LAKE    SUNNY      3  -8  60 SW9       30.18F WCI -11
FARGO          SUNNY      7  -6  55 S15       30.37F WCI -10
WAHPETON ARPT  NOT AVBL
$$

 ***** WEATHER ACROSS CENTRAL AND WESTERN NORTH DAKOTA  *****

CITY           SKY/WX    TMP DP  RH WIND       PRES   REMARKS
BISMARCK       SUNNY     10   1  67 SE6       30.18F WCI   0
MINOT          SUNNY     11  -2  56 S12       30.07F WCI  -3
JAMESTOWN      SUNNY      8  -2  63 S10       30.22F WCI  -6
MINOT AFB      SUNNY      8  -1  66 SW14      30.06F WCI  -8
GARRISON         N/A      5  -2  72 S8        30.10F WCI  -8
WILLISTON        N/A    N/A N/A N/A MISG      30.07S
DICKINSON      SUNNY     25   6  44 SW13      30.03R WCI  14
HETTINGER      MOSUNNY   22   4  46 SW10      30.08F WCI  11
$$

 *****  OTHER AIRPORT OBSERVATIONS IN OUR AREA  *****

CITY           SKY/WX    TMP DP  RH WIND       PRES   REMARKS
WALHALLA         N/A      7  -8  51 SW6       30.22F WCI  -3
GRAFTON AIRPOR NOT AVBL
VALLEY CITY AR FLURRIES   7   0  72 S17       30.26F WCI -12
CANDO          FAIR       3  -4  72 S8        30.16F WCI -10
CAVALIER APRT  FAIR       1  -8  66 S12       30.24F WCI -15
GWINNER        SUNNY      9  -4  56 SW17      30.34F WCI -10
SHEYENNE NWR     N/A      6  -8  53 S13       29.95  WCI -10
ROLLA          FAIR       1  -8  66 SW17      30.09F WCI -19
 ***** THE ABOVE OBSERVATIONS ARE NON NWS ARE NOT QUALITY
       CONTROLLED AND MAY MIS-REPORT RAIN FOR SNOW...
$$

  *****  WEATHER ACROSS NORTHERN MINNESOTA  *****

CITY           SKY/WX    TMP DP  RH WIND       PRES   REMARKS
FLAG ISLAND    SUNNY     -9 -15  77 S12       30.26F WCI -29
WARROAD        SUNNY     -2 -11  65 SW8       30.28S WCI -17
ROSEAU         SUNNY     -2  -9  71 S9        30.28F WCI -18
HALLOCK        NOT AVBL
THF RVR FALLS  SUNNY      0 -18  42 S14       30.31S WCI -19
BAUDETTE       SUNNY     -2 -11  65 SW9       30.28S WCI -18
WASKISH        SUNNY      0  -9  65 SW12      30.31F WCI -18
CROOKSTON      SUNNY      3  -6  66 S14       30.34F WCI -15
$$
  *****  WEATHER ACROSS CENTRAL AND WEST MINNESOTA  *****

CITY           SKY/WX    TMP DP  RH WIND       PRES   REMARKS
FOSSTON        SUNNY      0  -8  71 S13       30.33F WCI -18
BEMIDJI        SUNNY      0  -8  67 SW12      30.32S WCI -17
PARK RAPIDS    SUNNY      1  -8  66 W10       30.34F WCI -15
ELBOW LAKE     FAIR      -3  -7  83 S9        30.41S WCI -19
WADENA         SUNNY     -2  -6  84 SW8       30.38S WCI -17
DETROIT LAKES  SUNNY      1  -6  71 SW10      30.36F WCI -14
MOORHEAD       SUNNY      7  -6  56 SW14      30.38F WCI -10
FERGUS FALLS   SUNNY      0  -9  65 S9        30.45F WCI -16
MORRIS MN      SUNNY      1  -9  60 S9        30.42F WCI -14
STAPLES        SUNNY      0  -8  71 SW7       30.39S WCI -13
$$
  *****  WEATHER ELSEWHERE ACROSS MINNESOTA  *****

CITY           SKY/WX    TMP DP  RH WIND       PRES   REMARKS
DULUTH         SUNNY     -1 -11  62 W10       30.36R WCI -17
INTRNTL FALLS  SUNNY     -2 -12  62 SW8       30.30F WCI -17
ELY            SUNNY     -4 -11  71 SW5       30.31F WCI -15
CLOQUET        SUNNY      0 -11  60 W7        30.38S WCI -13
WHEATON        SUNNY      0  -9  65 SE9       30.44F WCI -16
BRAINERD       SUNNY     -3 -10  72 SW7       30.41F WCI -16
HIBBING        SUNNY      1 -11  57 SW10      30.34F WCI -15
ALEXANDRIA     SUNNY     -3  -7  82 SW7       30.40S WCI -16
SAINT CLOUD    SUNNY      0  -7  72 S6        30.47S WCI -12
MINNEAPOLIS    SUNNY      2  -8  63 SW5       30.52S WCI  -8
$$

  *****  WEATHER ACROSS SOUTH DAKOTA  *****

CITY           SKY/WX    TMP DP  RH WIND       PRES   REMARKS
SIOUX FALLS    SUNNY      6  -3  66 S9        30.45F WCI  -8
BROOKINGS      NOT AVBL
WATERTOWN      SUNNY     -2 -10  69 S14       30.36S WCI -21
HURON          SUNNY      7  -2  66 S13       30.40S WCI  -9
SISSETON       NOT AVBL
ABERDEEN       SUNNY      2  -7  66 S13       30.36F WCI -15
MITCHELL       SUNNY     11   1  64 S14       30.42F WCI  -5
PIERRE         SUNNY      5   0  79 SE8       30.28F WCI  -8
MOBRIDGE       SUNNY      9   0  67 S13       30.20F WCI  -7
RAPID CITY     MOSUNNY   18  10  71 SE3       30.13S
$$

  *****  SOME WEATHER IN NEARBY STATES *****

CITY           SKY/WX    TMP DP  RH WIND       PRES   REMARKS
GLASGOW MT     SUNNY     19   5  54 NW8       30.08R WCI   9
GREAT FALLS MT SUNNY     36  12  37 SW15      30.12R
CHEYENNE WY    MOSUNNY   30   9  41 S6        30.16R WCI  24
SCOTTSBLUFF NE MOSUNNY   25  13  60 NW8       30.22R WCI  16
OMAHA NE       SUNNY     12   0  58 VRB6      30.58S WCI   3
DES MOINES IA  MOSUNNY    8  -7  50 VRB3      30.58S
DAVENPORT IA   SUNNY      2  -6  69 NW8       30.55R WCI -12
CHICAGO IL     MOSUNNY   13  -5  44 NW10      30.45F WCI   0
EAU CLAIRE WI  SUNNY     -1 -12  59 W7        30.50S WCI -14
LA CROSSE WI   SUNNY      5 -10  50 CALM      30.55S
$$

  *****  SOME NATIONAL WEATHER *****

CITY           SKY/WX    TMP DP  RH WIND       PRES   REMARKS
LA GUARDIA NY  SNOW      26  23  88 N9        30.12F VSB 1/4 WCI  17
RALEIGH NC     RAIN      46  42  86 NE15G25   29.96R FOG
ATLANTA GA     LGT RAIN  43  40  89 NW18G24   30.05R
NEW ORLEANS LA CLOUDY    42  38  85 N21G29    30.22R
OKLAHOMA CITY  SUNNY     26  14  60 NW3       30.57R
ALBUQUERQUE NM SUNNY     29  17  61 NW6       30.41R WCI  23
SALT LAKE CITY PTSUNNY   32  21  64 S9        30.43R WCI  24
LOS ANGELES CA MOSUNNY   56  32  40 E3        30.26R
BOISE ID       SUNNY     34  17  50 CALM      30.41R
SEATTLE WA     CLOUDY    39  28  64 SE5       30.35R
$$

*** WEATHER ACROSS MANITOBA...SASKATCHEWAN AND ONTARIO ***
                ***ONTARIO***

CITY           SKY/WX    TMP DP  RH WIND       PRES   REMARKS
GERALDTON      SUNNY      0 -15  50 W10       30.20S WCI -17
THUNDER BAY    SUNNY      0 -13  55 W8        30.36F WCI -15
SIOUX LOOKOUT  SUNNY     -6 -15  65 SW6       30.20F WCI -18
TORONTO        PTSUNNY    9  -2  61 NW10      30.35R WCI  -6
BIG TROUT LK   SUNNY     -6 -15  65 W12       30.01F WCI -24
PICKLE LAKE    SUNNY     -2 -17  50 W13G21    30.10F WCI -21
DRYDEN         SUNNY     -6 -13  71 SW10      30.21S WCI -23
KENORA         SUNNY     -6 -15  65 SW5       30.22S WCI -17
$$
                *** MANITOBA***

CITY           SKY/WX    TMP DP  RH WIND       PRES   REMARKS
BRANDON        MOSUNNY   -9 -17  70 NW2       30.11F
DAUPHIN        SUNNY      5  -8  56 W10       30.04F WCI -10
ISLAND LAKE    PTSUNNY   -6 -17  59 S7        30.02F WCI -20
PILOT MOUND      N/A     -8 -15  71 S13         N/A  WCI -28
THE PAS        CLOUDY    -6 -15  65 S9        29.86F WCI -22
THOMPSON       PTSUNNY   -6 -17  59 S8        29.83F WCI -21
WINNIPEG       SUNNY     -2 -13  60 S14       30.24S WCI -21
LYNN LAKE      MOSUNNY   -2 -13  60 SW13      29.66F WCI -21
CHURCHILL      CRYSTALS -15 -22  70 S7        29.80F WCI -31
GILLAM         MOSUNNY   -6 -17  59 SW8       29.87F WCI -21
$$
                ***SASKATCHEWAN***

CITY           SKY/WX    TMP DP  RH WIND       PRES   REMARKS
ESTEVAN        SUNNY      7  -4  61 SW9       30.03F WCI  -7
KINDERSLEY     MOSUNNY   16   9  73 SW5       29.95S WCI   9
LLOYDMINSTER   MOSUNNY   21  10  63 W13       29.89R WCI   9
PRINCE ALBERT  MOSUNNY    5  -4  66 W8        29.86S WCI  -8
REGINA         MOSUNNY   -4 -13  65 SE3       30.01R
YORKTON        CLOUDY     0 -11  60 S13G18    29.96F WCI -18
N. BATTLEFORD  SUNNY     10   3  72 W2        29.93R
LA RONGE       PTSUNNY    7  -2  66 W8        29.76S WCI  -6
SASKATOON      SUNNY      5  -2  72 SW12      29.92S WCI -11
SWIFT CURRENT  SUNNY     21  12  68 SW17      29.97R WCI   7
$$
NOTE: THESE ARE AUTOMATED STATIONS WITH LIMITED QUALITY CONTROL
      "FAIR" INDICATES FEW OR NO CLOUDS BELOW 12,000 FEET WITH NO
      SIGNIFICANT WEATHER AND/OR OBSTRUCTIONS TO VISIBILITY.
      SKY/WX - SKY CONDITION AND SIGNIFICANT WEATHER.
      TMP - AIR TEMPERATURE.    DP   - DEWPOINT TEMPERATURE.
      RH  - RELATIVE HUMIDITY.  PRES - PRESSURE.
      HX  - HEAT INDEX.         WCI  - WIND CHILL INDEX.
$


USA.gov is the U.S. government's official web portal to all federal, state and local government web resources and services.